Temp
-15 -15 -15 -14 -14 -14 -14 -13 -13 -13 -13 -13 -13 -13 -13 -13 -13 -14 -14 -14 -14 -14 -14 -14 -14 -14 -14 -14 -14 -14 -14 -14
-15 -15 -15 -14 -14 -14 -14 -13 -13 -13 -13 -13 -13 -14 -14 -14 -14 -14 -14 -14 -14 -14 -14 -14 -14 -14 -14 -14 -13 -13 -14 -14
-15 -15 -15 -14 -14 -14 -13 -13 -13 -13 -14 -14 -14 -14 -15 -15 -14 -14 -14 -15 -15 -15 -15 -15 -15 -14 -14 -14 -14 -14 -14 -14
-15 -15 -14 -14 -13 -13 -13 -13 -14 -14 -14 -15 -15 -15 -15 -15 -15 -15 -15 -15 -14 -14 -14 -15 -15 -15 -15 -15 -15 -14 -14 -14
-14 -14 -14 -13 -13 -13 -14 -14 -14 -15 -15 -15 -16 -16 -16 -16 -15 -15 -15 -15 -15 -15 -15 -15 -15 -15 -15 -15 -15 -15 -15 -15
-14 -14 -14 -14 -14 -14 -14 -14 -15 -15 -15 -16 -16 -16 -16 -16 -16 -15 -15 -15 -15 -15 -15 -15 -15 -15 -15 -16 -16 -16 -16 -16
-14 -14 -14 -14 -14 -14 -15 -15 -15 -15 -15 -16 -16 -16 -16 -16 -16 -15 -15 -15 -15 -15 -15 -15 -15 -15 -16 -16 -16 -16 -16 -16
-14 -14 -14 -14 -14 -15 -15 -15 -15 -16 -16 -16 -15 -16 -16 -16 -16 -16 -16 -16 -16 -16 -16 -16 -16 -16 -17 -17 -17 -17 -16 -16
-14 -14 -15 -15 -15 -15 -15 -15 -15 -15 -15 -15 -16 -16 -17 -16 -16 -15 -16 -16 -17 -17 -17 -17 -17 -17 -17 -17 -16 -16 -16 -16
-14 -15 -15 -15 -15 -15 -15 -15 -15 -16 -16 -16 -16 -17 -16 -16 -16 -16 -17 -17 -17 -17 -17 -17 -17 -17 -17 -16 -16 -16 -16 -16
-15 -16 -16 -15 -15 -16 -14 -15 -16 -16 -17 -17 -17 -17 -17 -17 -17 -17 -17 -17 -17 -17 -17 -17 -17 -17 -17 -17 -17 -17 -17 -17
-14 -14 -15 -15 -15 -15 -15 -15 -16 -16 -16 -16 -17 -17 -16 -16 -17 -17 -17 -17 -17 -17 -17 -17 -17 -18 -18 -18 -18 -18 -18 -18
-15 -15 -15 -15 -14 -15 -15 -15 -16 -16 -16 -16 -17 -16 -16 -17 -17 -17 -18 -18 -18 -18 -18 -18 -18 -18 -18 -18 -18 -18 -18 -18
-15 -15 -16 -16 -16 -15 -15 -16 -15 -15 -16 -17 -17 -18 -19 -19 -19 -19 -19 -19 -19 -19 -18 -18 -18 -18 -18 -18 -18 -18 -18 -18
-15 -15 -15 -15 -15 -15 -15 -15 -15 -16 -17 -17 -18 -18 -18 -19 -19 -19 -19 -18 -18 -18 -18 -18 -18 -18 -18 -18 -18 -19 -19 -20
-15 -15 -15 -14 -14 -14 -15 -16 -16 -16 -17 -17 -18 -18 -19 -19 -19 -18 -18 -18 -18 -18 -18 -18 -19 -19 -19 -19 -19 -20 -20 -20
-15 -15 -15 -15 -15 -15 -16 -16 -16 -16 -17 -18 -18 -18 -18 -18 -19 -18 -18 -18 -18 -18 -19 -19 -19 -19 -19 -20 -20 -21 -21 -21
-15 -15 -15 -15 -15 -15 -15 -16 -17 -17 -18 -18 -18 -18 -18 -19 -19 -19 -19 -18 -19 -19 -19 -19 -19 -20 -20 -21 -21 -22 -22 -23
-15 -15 -15 -15 -15 -16 -16 -17 -17 -17 -18 -18 -19 -19 -19 -19 -19 -19 -19 -19 -19 -19 -19 -20 -21 -21 -22 -22 -22 -24 -26 -27
-15 -15 -15 -15 -16 -16 -17 -17 -17 -17 -18 -18 -19 -19 -19 -19 -19 -19 -19 -19 -19 -20 -20 -21 -22 -22 -23 -24 -26 -28 -29 -30
Height
5826 5828 5828 5827 5829 5829 5831 5831 5831 5832 5834 5834 5833 5832 5831 5829 5827 5825 5824 5822 5820 5817 5816 5814 5812 5811 5810 5807 5805 5803 5800 5799
5824 5824 5825 5827 5828 5828 5829 5829 5830 5831 5832 5830 5829 5828 5825 5824 5822 5821 5819 5817 5814 5812 5810 5808 5806 5804 5802 5800 5798 5796 5794 5793
5821 5823 5823 5824 5826 5827 5827 5828 5828 5828 5828 5826 5824 5823 5821 5819 5819 5817 5815 5812 5811 5808 5805 5802 5799 5797 5794 5792 5791 5789 5786 5784
5820 5822 5823 5824 5824 5825 5825 5825 5826 5825 5824 5822 5820 5818 5816 5815 5813 5811 5810 5808 5806 5804 5801 5798 5794 5791 5788 5785 5783 5780 5779 5776
5820 5821 5822 5822 5823 5823 5823 5823 5822 5821 5819 5817 5815 5813 5811 5810 5808 5806 5804 5803 5799 5796 5793 5790 5787 5784 5781 5778 5776 5773 5771 5769
5819 5819 5820 5821 5821 5820 5819 5818 5817 5815 5813 5811 5809 5808 5806 5804 5803 5800 5798 5794 5790 5787 5784 5781 5779 5776 5774 5771 5769 5766 5764 5761
5818 5818 5819 5818 5818 5817 5816 5815 5813 5810 5808 5806 5805 5803 5801 5798 5797 5794 5789 5785 5781 5777 5774 5772 5769 5766 5764 5762 5760 5758 5756 5754
5816 5816 5816 5815 5814 5814 5812 5810 5807 5805 5804 5801 5798 5794 5793 5792 5789 5784 5780 5775 5772 5767 5764 5761 5758 5756 5754 5753 5751 5749 5747 5746
5812 5812 5811 5810 5809 5808 5805 5803 5799 5799 5797 5797 5793 5788 5786 5784 5780 5776 5770 5765 5761 5757 5754 5751 5749 5747 5745 5744 5743 5740 5738 5735
5809 5809 5808 5807 5805 5803 5800 5794 5794 5794 5793 5789 5786 5782 5779 5774 5769 5763 5758 5754 5751 5748 5745 5742 5740 5738 5736 5733 5731 5727 5724 5722
5807 5805 5804 5803 5800 5799 5796 5790 5791 5787 5784 5780 5777 5774 5769 5762 5756 5752 5749 5746 5742 5739 5735 5733 5730 5727 5723 5719 5716 5713 5709 5706
5803 5803 5801 5799 5796 5793 5786 5782 5782 5779 5777 5772 5767 5761 5756 5752 5748 5744 5740 5736 5732 5727 5724 5720 5716 5713 5708 5704 5700 5697 5693 5688
5799 5798 5795 5790 5784 5786 5780 5778 5775 5772 5767 5761 5755 5751 5747 5743 5738 5733 5728 5723 5718 5714 5711 5706 5701 5696 5691 5686 5680 5674 5672 5669
5792 5791 5790 5787 5782 5778 5774 5772 5767 5762 5756 5750 5746 5740 5734 5729 5724 5719 5715 5711 5708 5703 5698 5693 5685 5679 5675 5668 5661 5654 5645 5641
5787 5784 5782 5778 5775 5772 5769 5762 5756 5751 5745 5740 5735 5730 5725 5720 5715 5711 5706 5701 5695 5689 5683 5676 5669 5660 5653 5645 5637 5628 5620 5612
5781 5779 5775 5773 5769 5764 5759 5755 5750 5744 5739 5733 5727 5721 5716 5711 5706 5700 5694 5688 5681 5673 5666 5657 5648 5639 5630 5622 5613 5604 5593 5586
5776 5774 5770 5766 5761 5757 5753 5748 5742 5735 5728 5722 5717 5711 5706 5700 5694 5688 5681 5673 5665 5656 5647 5637 5627 5618 5607 5598 5587 5576 5564 5551
5770 5766 5763 5759 5755 5751 5745 5739 5733 5727 5721 5715 5708 5702 5695 5688 5682 5674 5666 5658 5648 5638 5627 5616 5605 5594 5582 5571 5560 5547 5534 5518
5764 5761 5756 5752 5747 5742 5737 5731 5725 5718 5712 5704 5698 5691 5684 5676 5668 5659 5649 5639 5629 5619 5608 5596 5584 5570 5556 5541 5531 5518 5505 5495
5757 5753 5748 5744 5739 5734 5728 5723 5716 5709 5701 5693 5685 5677 5670 5662 5653 5644 5634 5623 5612 5600 5587 5573 5562 5548 5533 5517 5505 5495 5487 5480
Wind_Speed
11 12 13 11 11 10 9 8 7 9 14 16 18 19 21 23 22 24 27 27 27 27 26 27 26 28 30 31 30 31 29 30
10 11 12 13 11 10 10 9 11 14 17 18 19 22 22 22 25 25 28 28 30 29 31 33 35 34 34 32 32 33 33 32
12 13 13 12 10 9 10 13 14 17 18 19 21 22 23 25 25 27 29 29 32 33 35 39 41 40 39 37 37 35 35 36
13 12 10 10 9 12 14 15 16 18 20 21 24 25 25 27 27 27 29 30 31 35 37 39 40 40 39 39 39 37 35 35
9 8 9 10 13 12 14 17 18 20 22 23 22 23 24 25 28 30 30 35 38 39 40 40 39 41 40 39 39 38 35 35
8 9 10 10 12 14 18 18 22 24 27 26 20 23 26 27 27 30 39 42 42 44 43 43 43 42 40 39 39 38 36 35
6 8 10 12 16 18 21 23 26 28 31 30 25 25 27 29 28 39 43 46 46 45 44 43 42 41 39 38 37 37 36 35
10 10 13 16 17 21 25 29 32 33 35 29 19 24 31 34 42 44 44 44 45 44 44 41 38 37 36 36 36 36 37 37
11 14 15 18 21 24 28 30 34 29 11 24 28 31 39 42 46 48 44 41 40 37 36 34 34 35 37 38 40 42 42 45
13 14 16 21 24 29 35 44 41 27 32 31 28 40 41 47 48 45 41 39 37 35 34 35 39 41 43 46 48 50 52 54
16 16 18 24 28 32 30 23 22 44 44 38 37 40 45 48 45 41 39 38 37 39 41 43 47 48 51 53 55 56 59 61
23 23 24 28 27 41 28 34 51 44 45 47 43 50 50 47 41 38 39 41 43 46 49 52 54 54 56 57 60 61 64 67
26 24 30 29 28 40 42 45 46 47 49 48 52 55 49 41 41 44 47 50 53 55 56 57 57 61 63 66 68 71 72 73
25 26 25 33 35 42 45 47 50 54 54 53 50 48 47 48 50 53 55 58 58 58 59 61 66 69 71 74 77 80 84 86
29 30 30 35 39 43 46 50 55 58 58 55 51 51 52 53 54 56 57 58 59 62 65 68 72 76 79 81 84 87 89 90
29 31 36 41 45 46 48 50 55 51 51 51 53 53 54 56 57 58 60 61 64 68 72 76 79 82 85 87 90 93 95 96
32 34 34 34 35 40 44 46 50 53 54 55 55 56 58 58 60 61 63 66 69 74 78 82 85 89 93 95 96 96 99 105
23 26 29 31 35 37 42 45 50 53 55 57 59 59 59 62 62 64 67 70 75 80 85 89 92 95 96 96 98 102 107 102
23 26 30 34 36 39 42 46 50 54 56 57 58 59 61 62 64 67 71 75 81 86 90 93 95 96 98 102 106 101 86 71
27 31 34 37 40 43 46 48 50 53 56 59 60 61 62 64 67 70 76 81 86 90 93 95 96 98 102 100 89 74 59 51
Wind_Direction
229 233 239 224 211 211 221 228 245 259 268 276 283 290 292 298 300 302 308 309 311 312 308 306 303 303 301 298 293 288 287 288
229 238 229 214 218 225 241 258 268 273 277 281 287 286 288 291 297 309 312 311 309 308 312 313 311 307 304 301 297 292 288 285
230 223 204 209 228 246 261 269 275 278 281 286 285 287 293 299 305 312 309 311 311 305 305 309 307 304 302 300 297 293 291 288
198 201 210 227 245 260 270 277 279 286 289 288 289 290 295 294 297 306 304 307 309 305 303 300 301 299 298 296 293 291 288 284
196 214 232 249 256 270 279 283 290 284 282 282 287 290 295 299 299 305 303 302 304 304 301 299 297 295 295 292 288 285 282 281
221 231 247 260 273 280 282 284 282 277 276 276 278 287 289 293 298 302 305 307 306 303 300 296 293 294 293 290 285 283 281 279
234 246 261 276 286 292 292 287 282 280 279 277 280 281 292 283 297 303 310 307 304 301 298 295 294 292 290 287 282 278 276 276
236 255 274 282 290 291 290 286 280 279 281 278 287 312 321 314 311 309 307 303 301 299 295 291 289 289 287 285 283 282 281 280
263 288 294 289 286 288 284 281 275 273 296 279 304 319 316 315 316 310 305 304 301 296 292 290 288 286 286 286 285 284 282 282
283 279 285 285 290 288 288 288 275 244 294 300 302 311 309 312 313 307 303 302 299 295 290 290 290 290 290 290 290 289 286 285
272 267 268 279 283 276 270 266 274 310 315 313 305 306 310 312 310 307 303 299 296 293 293 293 294 294 294 293 293 293 292 291
277 277 280 280 277 271 269 304 311 310 309 309 309 315 315 308 302 300 298 297 297 298 299 299 299 298 297 296 296 295 294 293
277 276 269 272 276 294 305 304 311 308 306 310 312 313 311 307 307 306 306 305 305 305 303 301 300 300 300 299 297 296 295 294
274 281 286 295 297 299 304 304 303 306 308 310 312 312 312 311 308 306 306 304 302 301 301 300 301 299 299 299 298 298 298 297
279 287 292 294 298 303 303 305 308 309 308 309 310 311 310 308 305 303 301 300 301 301 301 301 302 302 302 302 302 301 300 299
284 290 293 300 297 303 306 303 303 305 305 306 307 308 306 303 301 301 301 301 301 303 303 305 306 305 305 305 303 301 300 299
285 294 296 300 303 303 301 301 306 308 308 307 305 303 301 301 302 302 303 303 303 305 307 307 306 305 305 304 304 304 303 302
298 301 302 305 305 308 311 311 310 308 305 302 301 300 301 302 304 303 302 304 307 308 308 307 306 306 306 306 307 306 306 305
302 303 304 305 308 311 310 309 307 306 305 303 302 301 303 304 304 304 307 309 310 309 309 308 309 309 310 309 308 308 305 301
305 304 305 305 306 306 304 303 304 305 304 303 304 305 305 305 306 308 309 309 309 311 311 311 311 310 310 309 307 305 302 300